This is the latest recevied weather packets stored in our database for station/object KM4RT-13. If no packets are shown the sender has not sent any weather packets the latest 10 day(s).
| Time | Temp. | Humidity | Pressure | Rain* | Wind** | Luminosity | Snow |
|---|---|---|---|---|---|---|---|
| 1777655090 | 17.22° C | 57% | 1014.8 hPa | 0 mm | - | 523 W/m² | - |
| 1777654788 | 17.22° C | 60% | 1014.7 hPa | 0 mm | - | 583 W/m² | - |
| 1777654485 | 17.22° C | 59% | 1014.8 hPa | 0 mm | - | 759 W/m² | - |
| 1777654183 | 17.22° C | 57% | 1014.7 hPa | 0 mm | - | 755 W/m² | - |
| 1777653881 | 16.67° C | 58% | 1015.1 hPa | 0 mm | - | 582 W/m² | - |
| 1777653577 | 16.67° C | 56% | 1014.8 hPa | 0 mm | - | 360 W/m² | - |
| 1777653273 | 16.67° C | 56% | 1015 hPa | 0 mm | - | 329 W/m² | - |
| 1777652970 | 16.67° C | 61% | 1015.1 hPa | 0 mm | - | 378 W/m² | - |
| 1777652667 | 16.67° C | 60% | 1015.2 hPa | 0 mm | - | 363 W/m² | - |
| 1777652364 | 16.11° C | 59% | 1015.1 hPa | 0 mm | - | 332 W/m² | - |
| 1777652060 | 16.11° C | 62% | 1015.1 hPa | 0 mm | - | 338 W/m² | - |
| 1777651757 | 16.67° C | 62% | 1015.2 hPa | 0 mm | - | 343 W/m² | - |
| 1777651454 | 16.11° C | 63% | 1015.2 hPa | 0 mm | - | 379 W/m² | - |
| 1777651152 | 17.22° C | 61% | 1015.3 hPa | 0 mm | - | 405 W/m² | - |
| 1777650849 | 16.67° C | 63% | 1015.3 hPa | 0 mm | - | 431 W/m² | - |
| 1777650545 | 16.11° C | 63% | 1015.2 hPa | 0 mm | - | 414 W/m² | - |
| 1777650243 | 16.11° C | 62% | 1015.3 hPa | 0 mm | - | 473 W/m² | - |
| 1777649939 | 16.67° C | 61% | 1015.2 hPa | 0 mm | - | 521 W/m² | - |
| 1777649637 | 16.11° C | 64% | 1015.3 hPa | 0 mm | - | 484 W/m² | - |
| 1777649332 | 16.11° C | 62% | 1015.2 hPa | 0 mm | - | 443 W/m² | - |
| 1777649030 | 16.11° C | 64% | 1015.4 hPa | 0 mm | - | 419 W/m² | - |
| 1777648727 | 16.11° C | 64% | 1015.1 hPa | 0 mm | - | 480 W/m² | - |
| 1777648423 | 16.11° C | 63% | 1015 hPa | 0 mm | - | 454 W/m² | - |
| 1777648120 | 15.56° C | 64% | 1014.9 hPa | 0 mm | - | 463 W/m² | - |
| 1777647816 | 15.56° C | 62% | 1015.2 hPa | 0 mm | - | 492 W/m² | - |
* Rain latest hour (hover to see other rain measurements)
** Current wind speed in m/s (hover to see current wind gust speed)